CW0060 Weather Reports


Display with metric or nautical units.
time (UTC)temp
F
wind
direction
speed
MPH
gust
MPH
rain 1hr
in
rain 24hr
in
rain mn
in
humidity
%
barometer
mb
20260904164705 82 257 9.0 21.0 0.00 0.00 0.00 47 1011.8
20260904164205 82 234 11.0 27.0 0.00 0.00 0.00 47 1011.8
20260904163205 82 255 14.0 27.0 0.00 0.00 0.00 47 1011.8
20260904162705 82 214 11.0 23.0 0.00 0.00 0.00 47 1011.8
20260904162205 82 250 11.0 25.0 0.00 0.00 0.00 47 1011.8
20260904161705 83 231 13.0 25.0 0.00 0.00 0.00 46 1011.7
20260904161205 83 248 12.0 21.0 0.00 0.00 0.00 45 1011.6
20260904160706 84 236 10.0 26.0 0.00 0.00 0.00 45 1011.7
20260904160206 84 236 13.0 26.0 0.00 0.00 0.00 44 1011.7
20260904155705 85 271 15.0 26.0 0.00 0.00 0.00 44 1011.7
20260904155205 85 271 14.0 25.0 0.00 0.00 0.00 43 1011.6
20260904154704 85 221 14.0 27.0 0.00 0.00 0.00 43 1011.5
20260904154208 85 227 15.0 27.0 0.00 0.00 0.00 44 1011.5
20260904153705 85 226 15.0 27.0 0.00 0.00 0.00 44 1011.6
20260904153227 85 226 17.0 27.0 0.00 0.00 0.00 43 1011.6
20260904152705 85 262 17.0 25.0 0.00 0.00 0.00 43 1011.7
20260904152206 85 248 15.0 25.0 0.00 0.00 0.00 43 1011.6
20260904151705 85 234 14.0 25.0 0.00 0.00 0.00 44 1011.6
20260904151205 86 295 14.0 25.0 0.00 0.00 0.00 43 1011.7
20260904150205 85 252 14.0 25.0 0.00 0.00 0.00 43 1011.5
20260904145706 86 281 13.0 23.0 0.00 0.00 0.00 43 1011.8
20260904145205 86 229 13.0 27.0 0.00 0.00 0.00 44 1011.7
20260904144705 85 271 14.0 27.0 0.00 0.00 0.00 44 1011.6
20260904144206 85 196 13.0 27.0 0.00 0.00 0.00 44 1011.7
20260904143705 85 278 13.0 21.0 0.00 0.00 0.00 44 1011.7
20260904143205 85 255 12.0 20.0 0.00 0.00 0.00 44 1011.8
20260904142706 85 237 12.0 24.0 0.00 0.00 0.00 44 1011.8
20260904142205 85 281 12.0 28.0 0.00 0.00 0.00 44 1011.8
20260904141705 84 231 15.0 28.0 0.00 0.00 0.00 45 1011.9
20260904141225 84 222 14.0 28.0 0.00 0.00 0.00 45 1012.1
20260904140734 84 243 12.0 23.0 0.00 0.00 0.00 46 1012.0
20260904140206 84 219 13.0 32.0 0.00 0.00 0.00 46 1012.0
20260904135705 83 246 15.0 32.0 0.00 0.00 0.00 46 1012.2
20260904135206 83 233 13.0 19.0 0.00 0.00 0.00 47 1012.2
20260904134705 84 241 11.0 19.0 0.00 0.00 0.00 48 1012.3
20260904134205 83 231 12.0 19.0 0.00 0.00 0.00 47 1012.3
20260904133706 84 281 12.0 19.0 0.00 0.00 0.00 47 1012.5
20260904133206 84 219 12.0 19.0 0.00 0.00 0.00 47 1012.5
20260904132705 84 231 12.0 19.0 0.00 0.00 0.00 47 1012.5
20260904132205 84 217 12.0 23.0 0.00 0.00 0.00 47 1012.6
20260904131705 85 220 11.0 26.0 0.00 0.00 0.00 46 1012.7
20260904131205 85 222 13.0 26.0 0.00 0.00 0.00 48 1013.0
20260904130707 84 224 14.0 24.0 0.00 0.00 0.00 47 1013.0
20260904130206 84 186 13.0 25.0 0.00 0.00 0.00 47 1012.8
20260904125705 84 222 15.0 25.0 0.00 0.00 0.00 47 1013.2
20260904124705 84 227 14.0 25.0 0.00 0.00 0.00 47 1013.3
20260904124205 84 215 13.0 23.0 0.00 0.00 0.00 47 1013.3
20260904123705 84 229 12.0 19.0 0.00 0.00 0.00 48 1013.4
20260904123205 84 233 11.0 23.0 0.00 0.00 0.00 49 1013.5
20260904122705 84 229 12.0 23.0 0.00 0.00 0.00 48 1013.5
20260904121705 83 234 15.0 24.0 0.00 0.00 0.00 48 1013.6
20260904121220 83 238 15.0 24.0 0.00 0.00 0.00 48 1013.6
20260904120728 83 264 12.0 22.0 0.00 0.00 0.00 49 1013.7
20260904120205 83 265 11.0 22.0 0.00 0.00 0.00 48 1013.7
20260904115705 83 240 12.0 22.0 0.00 0.00 0.00 49 1013.9
20260904115206 83 240 13.0 22.0 0.00 0.00 0.00 49 1013.9
20260904114705 82 283 13.0 23.0 0.00 0.00 0.00 50 1014.0
20260904114205 82 243 13.0 23.0 0.00 0.00 0.00 51 1014.1
20260904113706 81 217 13.0 23.0 0.00 0.00 0.00 50 1014.2
20260904112705 83 243 11.0 19.0 0.00 0.00 0.00 49 1014.3
20260904111706 82 285 11.0 24.0 0.00 0.00 0.00 50 1014.3
20260904111205 81 229 11.0 24.0 0.00 0.00 0.00 51 1014.4
20260904110205 81 253 13.0 25.0 0.00 0.00 0.00 51 1014.4
20260904105705 81 224 13.0 25.0 0.00 0.00 0.00 50 1014.5
20260904105206 80 264 15.0 26.0 0.00 0.00 0.00 52 1014.5
20260904104205 81 211 17.0 31.0 0.00 0.00 0.00 50 1014.6
20260904103705 80 231 18.0 31.0 0.00 0.00 0.00 51 1014.6
20260904103205 80 187 17.0 31.0 0.00 0.00 0.00 51 1014.5
20260904102206 80 236 14.0 26.0 0.00 0.00 0.00 53 1014.4
20260904101705 80 226 13.0 28.0 0.00 0.00 0.00 54 1014.5
20260904101206 80 204 14.0 28.0 0.00 0.00 0.00 55 1014.6
20260904100705 79 224 15.0 29.0 0.00 0.00 0.00 55 1014.6
20260904094704 78 226 16.0 24.0 0.00 0.00 0.00 58 1015.0
20260904094205 78 258 15.0 22.0 0.00 0.00 0.00 58 1015.4
20260904093706 78 214 14.0 22.0 0.00 0.00 0.00 58 1015.3
20260904093206 78 212 13.0 25.0 0.00 0.00 0.00 59 1015.3
20260904092705 78 239 13.0 25.0 0.00 0.00 0.00 60 1015.4
20260904092205 77 220 15.0 25.0 0.00 0.00 0.00 61 1015.6
20260904091206 77 231 13.0 24.0 0.00 0.00 0.00 61 1015.7
20260904090705 77 229 13.0 24.0 0.00 0.00 0.00 61 1015.8
20260904090205 76 233 14.0 24.0 0.00 0.00 0.00 63 1015.8
20260904085705 76 245 14.0 22.0 0.00 0.00 0.00 62 1015.8
20260904085205 76 219 13.0 22.0 0.00 0.00 0.00 63 1016.1
20260904084705 76 258 12.0 21.0 0.00 0.00 0.00 62 1015.9
20260904084205 76 239 12.0 21.0 0.00 0.00 0.00 64 1016.0
20260904083705 75 227 12.0 22.0 0.00 0.00 0.00 64 1016.0
20260904083205 74 245 12.0 22.0 0.00 0.00 0.00 65 1016.1
20260904082705 74 227 12.0 21.0 0.00 0.00 0.00 66 1016.1
20260904082205 73 257 12.0 21.0 0.00 0.00 0.00 67 1016.2
20260904081705 73 226 12.0 20.0 0.00 0.00 0.00 66 1016.2
20260904081206 73 210 13.0 20.0 0.00 0.00 0.00 67 1016.3
20260904080705 72 240 12.0 20.0 0.00 0.00 0.00 68 1016.4
20260904080205 72 210 12.0 18.0 0.00 0.00 0.00 69 1016.5
20260904075705 72 220 12.0 18.0 0.00 0.00 0.00 69 1016.5
20260904075206 71 222 12.0 18.0 0.00 0.00 0.00 70 1016.5
20260904074705 71 238 12.0 18.0 0.00 0.00 0.00 70 1016.6
20260904074206 71 201 11.0 18.0 0.00 0.00 0.00 71 1016.7
20260904073705 71 219 8.0 14.0 0.00 0.00 0.00 72 1016.8
20260904073205 70 233 6.0 14.0 0.00 0.00 0.00 73 1016.8
20260904072206 69 220 7.0 12.0 0.00 0.00 0.00 74 1016.8
20260904071705 69 197 6.0 10.0 0.00 0.00 0.00 74 1016.8
20260904071205 69 183 5.0 9.0 0.00 0.00 0.00 75 1017.0
20260904070705 69 210 6.0 9.0 0.00 0.00 0.00 75 1017.1
20260904070205 69 176 5.0 8.0 0.00 0.00 0.00 76 1017.1
20260904065705 68 219 4.0 8.0 0.00 0.00 0.00 76 1017.2
20260904065205 68 200 5.0 8.0 0.00 0.00 0.00 77 1017.2
20260904064705 67 212 5.0 7.0 0.00 0.00 0.00 78 1017.2
20260904064205 67 205 4.0 7.0 0.00 0.00 0.00 78 1017.3
20260904063705 67 226 4.0 7.0 0.00 0.00 0.00 79 1017.3
20260904063205 67 188 4.0 6.0 0.00 0.00 0.00 79 1017.3
20260904061705 67 208 4.0 9.0 0.00 0.00 0.00 78 1017.3
20260904060705 66 191 4.0 7.0 0.00 0.00 0.00 78 1017.3
20260904055706 66 196 3.0 12.0 0.00 0.00 0.00 78 1017.3
20260904055206 66 215 4.0 12.0 0.00 0.00 0.00 78 1017.3
20260904054705 66 158 6.0 10.0 0.00 0.00 0.00 78 1017.3
20260904054206 66 164 6.0 10.0 0.00 0.00 0.00 78 1017.3
20260904053705 66 195 6.0 10.0 0.00 0.00 0.00 78 1017.3
20260904053205 66 174 6.0 10.0 0.00 0.00 0.00 78 1017.3
20260904052706 66 150 6.0 11.0 0.00 0.00 0.00 78 1017.3
20260904052205 66 164 7.0 11.0 0.00 0.00 0.00 78 1017.3
20260904051206 66 172 6.0 11.0 0.00 0.00 0.00 78 1017.3
20260904050705 66 167 6.0 11.0 0.00 0.00 0.00 78 1017.2
20260904050206 66 175 6.0 11.0 0.00 0.00 0.00 78 1017.3
20260904045706 66 136 6.0 11.0 0.00 0.00 0.00 78 1017.2
20260904045206 66 171 6.0 11.0 0.00 0.00 0.00 79 1017.2
20260904044706 65 158 7.0 10.0 0.00 0.00 0.00 79 1017.3
20260904044206 65 168 6.0 10.0 0.00 0.00 0.00 79 1017.3
20260904043206 65 156 6.0 11.0 0.00 0.00 0.00 79 1017.5
20260904042706 65 168 6.0 11.0 0.00 0.00 0.00 79 1017.4
20260904042206 65 164 6.0 9.0 0.00 0.00 0.00 79 1017.5
20260904041706 65 186 5.0 10.0 0.00 0.00 0.00 79 1017.5
20260904041206 65 170 5.0 10.0 0.00 0.00 0.00 79 1017.6
20260904040706 65 200 6.0 11.0 0.00 0.00 0.00 79 1017.7
20260904040206 65 162 7.0 11.0 0.00 0.00 0.00 79 1017.7
20260904035705 65 181 7.0 11.0 0.00 0.00 0.00 79 1017.7
20260904035206 64 215 7.0 11.0 0.00 0.00 0.00 79 1017.7
20260904034705 64 158 6.0 10.0 0.00 0.00 0.00 79 1017.7
20260904034206 64 153 5.0 10.0 0.00 0.00 0.00 79 1017.7
20260904033706 64 184 4.0 7.0 0.00 0.00 0.00 79 1017.8
20260904033206 64 194 4.0 7.0 0.00 0.00 0.00 79 1017.8
20260904032705 64 224 4.0 9.0 0.00 0.00 0.00 78 1017.8
20260904032206 64 192 4.0 9.0 0.00 0.00 0.00 78 1017.8
20260904031706 65 205 5.0 10.0 0.00 0.00 0.00 78 1017.8
20260904031206 65 214 5.0 10.0 0.00 0.00 0.00 78 1017.7
20260904030706 65 221 4.0 9.0 0.00 0.00 0.00 78 1017.8
20260904025705 65 203 4.0 8.0 0.00 0.00 0.00 77 1017.8
20260904025206 65 210 5.0 8.0 0.00 0.00 0.00 77 1017.8
20260904024705 65 208 5.0 8.0 0.00 0.00 0.00 77 1017.8
20260904023206 65 214 5.0 10.0 0.00 0.00 0.00 77 1017.8
20260904022706 65 183 5.0 10.0 0.00 0.00 0.00 78 1017.8
20260904022207 65 174 5.0 7.0 0.00 0.00 0.00 77 1017.9
20260904021706 65 196 4.0 7.0 0.00 0.00 0.00 77 1017.9
20260904021206 65 207 4.0 7.0 0.00 0.00 0.00 77 1018.1
20260904020705 65 184 4.0 6.0 0.00 0.00 0.00 78 1018.1
20260904020206 65 137 3.0 7.0 0.00 0.00 0.00 78 1018.2
20260904015706 65 208 3.0 7.0 0.00 0.00 0.00 78 1018.1
20260904015206 65 178 3.0 6.0 0.00 0.00 0.00 78 1018.2
20260904013705 65 262 1.0 2.0 0.00 0.00 0.00 77 1018.3
20260904013206 65 178 1.0 3.0 0.00 0.00 0.00 76 1018.4
20260904012707 65 72 0.0 3.0 0.00 0.00 0.00 76 1018.5
20260904012206 65 314 0.0 3.0 0.00 0.00 0.00 76 1018.5
20260904011206 66 269 1.0 3.0 0.00 0.00 0.00 76 1018.6
20260904010706 66 314 1.0 3.0 0.00 0.00 0.00 76 1018.5
20260904010234 66 1 1.0 3.0 0.00 0.00 0.00 76 1018.6
20260904005705 66 1 2.0 3.0 0.00 0.00 0.00 76 1018.6
20260904005205 66 144 1.0 6.0 0.00 0.00 0.00 76 1018.6
20260904004706 66 199 2.0 6.0 0.00 0.00 0.00 76 1018.6
20260904004205 66 178 2.0 6.0 0.00 0.00 0.00 76 1018.6
20260904003706 66 295 2.0 4.0 0.00 0.00 0.00 76 1018.6
20260904003206 66 274 2.0 4.0 0.00 0.00 0.00 75 1018.6
20260904002705 66 262 1.0 4.0 0.00 0.00 0.00 75 1018.6
20260904001705 66 279 1.0 4.0 0.00 0.00 0.00 75 1018.8
20260904000705 66 1 1.0 2.0 0.00 0.00 0.00 75 1018.8
20260904000205 66 1 1.0 3.0 0.00 0.00 0.00 75 1018.8
20260903235705 66 89 1.0 3.0 0.00 0.00 0.00 75 1019.0
20260903235205 66 46 1.0 3.0 0.00 0.00 0.00 75 1019.1
20260903234705 66 295 1.0 3.0 0.00 0.00 0.00 75 1019.2
20260903234205 65 1 1.0 3.0 0.00 0.00 0.00 75 1019.2
20260903233705 65 222 1.0 3.0 0.00 0.00 0.00 75 1019.2
20260903233205 65 197 1.0 3.0 0.00 0.00 0.00 75 1019.5
20260903232705 65 178 1.0 3.0 0.00 0.00 0.00 75 1019.5
20260903232206 65 269 1.0 3.0 0.00 0.00 0.00 75 1019.6
20260903231205 65 257 1.0 3.0 0.00 0.00 0.00 74 1019.6
20260903230705 65 277 1.0 4.0 0.00 0.00 0.00 74 1019.6
20260903230231 65 117 1.0 4.0 0.00 0.00 0.00 74 1019.6
20260903225705 65 35 2.0 4.0 0.00 0.00 0.00 74 1019.6
20260903225206 65 56 2.0 3.0 0.00 0.00 0.00 74 1019.6
20260903224705 65 117 1.0 4.0 0.00 0.00 0.00 74 1019.6
20260903224205 65 46 1.0 4.0 0.00 0.00 0.00 74 1019.7
20260903223705 65 89 1.0 4.0 0.00 0.00 0.00 74 1019.6
20260903223205 65 151 1.0 2.0 0.00 0.00 0.00 74 1019.6
20260903222705 65 156 1.0 2.0 0.00 0.00 0.00 74 1019.7
20260903221705 65 240 0.0 2.0 0.00 0.00 0.00 73 1019.8
20260903221205 65 222 0.0 2.0 0.00 0.00 0.00 73 1019.7
20260903220705 65 222 0.0 2.0 0.00 0.00 0.00 73 1019.7
20260903220205 65 46 1.0 2.0 0.00 0.00 0.00 73 1019.6
20260903215705 65 46 1.0 2.0 0.00 0.00 0.00 73 1019.6
20260903215206 66 28 0.0 2.0 0.00 0.00 0.00 73 1019.6
20260903214706 66 20 0.0 2.0 0.00 0.00 0.00 72 1019.6
20260903214206 66 269 0.0 2.0 0.00 0.00 0.00 72 1019.7
20260903213705 66 1 1.0 2.0 0.00 0.00 0.00 72 1019.6
20260903213205 66 20 0.0 2.0 0.00 0.00 0.00 72 1019.7
20260903212706 66 269 1.0 2.0 0.00 0.00 0.00 72 1019.7
20260903212205 66 46 1.0 2.0 0.00 0.00 0.00 72 1019.5
20260903211206 66 89 0.0 2.0 0.00 0.00 0.00 72 1019.6
20260903210705 66 46 0.0 3.0 0.00 0.00 0.00 71 1019.6
20260903210205 66 269 1.0 3.0 0.00 0.00 0.00 71 1019.7
20260903205730 66 1 1.0 3.0 0.00 0.00 0.00 71 1019.8
20260903205206 67 314 1.0 3.0 0.00 0.00 0.00 71 1019.8
20260903204706 67 72 1.0 3.0 0.00 0.00 0.00 71 1019.7
20260903204206 67 117 2.0 3.0 0.00 0.00 0.00 70 1019.7
20260903203727 67 58 1.0 3.0 0.00 0.00 0.00 69 1019.7
20260903203205 67 106 0.0 2.0 0.00 0.00 0.00 69 1019.7
20260903202705 68 331 0.0 2.0 0.00 0.00 0.00 68 1019.9
20260903202231 68 269 1.0 2.0 0.00 0.00 0.00 68 1019.8
20260903201705 68 327 0.0 1.0 0.00 0.00 0.00 68 1019.7
20260903201205 68 269 0.0 2.0 0.00 0.00 0.00 67 1019.7
20260903200705 69 314 0.0 3.0 0.00 0.00 0.00 67 1019.8
20260903200205 69 46 1.0 3.0 0.00 0.00 0.00 67 1019.8
20260903195706 69 240 1.0 3.0 0.00 0.00 0.00 66 1019.8
20260903195206 69 1 2.0 4.0 0.00 0.00 0.00 66 1019.7
20260903194705 69 290 2.0 4.0 0.00 0.00 0.00 66 1019.7
20260903194205 69 331 2.0 4.0 0.00 0.00 0.00 66 1019.6
20260903193706 70 295 2.0 4.0 0.00 0.00 0.00 66 1019.5
20260903193205 70 277 2.0 5.0 0.00 0.00 0.00 65 1019.5
20260903192705 70 217 2.0 7.0 0.00 0.00 0.00 65 1019.5
20260903192206 70 240 3.0 8.0 0.00 0.00 0.00 64 1019.5
20260903191705 70 236 3.0 8.0 0.00 0.00 0.00 64 1019.6
20260903191205 71 269 3.0 8.0 0.00 0.00 0.00 63 1019.7
20260903190705 71 215 3.0 7.0 0.00 0.00 0.00 62 1019.6
20260903190205 71 269 3.0 9.0 0.00 0.00 0.00 61 1019.6
20260903185705 71 272 4.0 14.0 0.00 0.00 0.00 61 1019.7
20260903185206 71 295 6.0 15.0 0.00 0.00 0.00 61 1019.8
20260903184707 71 302 6.0 15.0 0.00 0.00 0.00 61 1019.8
20260903184206 72 255 6.0 15.0 0.00 0.00 0.00 59 1019.9
20260903183705 73 276 5.0 15.0 0.00 0.00 0.00 58 1019.9
20260903183205 73 311 5.0 9.0 0.00 0.00 0.00 55 1019.7
20260903182708 73 276 5.0 9.0 0.00 0.00 0.00 55 1019.6
20260903182205 73 284 4.0 10.0 0.00 0.00 0.00 54 1019.4
20260903181205 73 317 5.0 10.0 0.00 0.00 0.00 54 1019.0
20260903180705 73 236 5.0 9.0 0.00 0.00 0.00 54 1018.9
20260903180231 73 265 5.0 9.0 0.00 0.00 0.00 54 1018.8
20260903175707 73 222 4.0 9.0 0.00 0.00 0.00 54 1018.8
20260903175206 73 236 4.0 10.0 0.00 0.00 0.00 54 1018.8
20260903174706 73 269 4.0 10.0 0.00 0.00 0.00 54 1018.9
20260903174206 73 252 5.0 10.0 0.00 0.00 0.00 54 1018.8
20260903173705 74 221 6.0 9.0 0.00 0.00 0.00 54 1018.7
20260903173205 74 243 5.0 10.0 0.00 0.00 0.00 54 1018.6
20260903172705 74 269 5.0 12.0 0.00 0.00 0.00 54 1018.6
20260903172206 74 233 6.0 12.0 0.00 0.00 0.00 53 1018.7
20260903171705 74 243 6.0 12.0 0.00 0.00 0.00 53 1018.6
20260903171205 74 238 6.0 12.0 0.00 0.00 0.00 53 1018.6
20260903170705 74 219 7.0 15.0 0.00 0.00 0.00 53 1018.5
20260903170208 74 215 8.0 15.0 0.00 0.00 0.00 53 1018.5
20260903165705 74 193 8.0 15.0 0.00 0.00 0.00 53 1018.5
20260903165206 74 253 6.0 9.0 0.00 0.00 0.00 53 1018.6